Weather History for Ahmedabad, India

Change the Weather History Date:

Saturday, January 5, 2013

  Actual Average Record
Temperature  
Mean Temperature 62 °F -  
Max Temperature 78 °F 79 °F 84 °F (1998)
Min Temperature 45 °F 54 °F 45 °F (2013)
Degree Days  
Heating Degree Days 4    
Growing Degree Days 12 (Base 50)    
Moisture  
Dew Point 43 °F    
Average Humidity 53    
Maximum Humidity 87    
Minimum Humidity 23    
Precipitation  
Precipitation 0.00 in 0.00 in - ()
Sea Level Pressure  
Sea Level Pressure 29.89 in    
Wind  
Wind Speed 3 mph ()    
Max Wind Speed 9 mph    
Max Gust Speed -    
Visibility 2.4 miles    
Events      
Averages and records for this station are not official NWS values.
T = Trace of Precipitation, MM = Missing Value Source: Averaged Metar Reports

Daily Weather History Graph

Daily Weather History Graph

Search for Another Location

Airport:

Trip Planner

Search our weather history database for the weather conditions in past years. The results will help you decide how hot, cold, wet, or windy it might be!

Date:

Astronomy

Jan. 05, 2013 Rise Set
Actual Time 7:21 AM IST 6:08 PM IST
Civil Twilight 6:57 AM IST 6:32 PM IST
Nautical Twilight 6:29 AM IST 7:00 PM IST
Astronomical Twilight 6:01 AM IST 7:28 PM IST
Moon No Moon Rise 12:19 PM IST (1/5)
Length of Visible Light 11h 35m
Length of Day
10h 46m
Waning Gibbous, 49% of the Moon is Illuminated
Jan 5
Waning Gibbous
Jan 12
New
Jan 19
First Quarter
Jan 27
Full
Feb 3
Last Quarter

Hourly Weather History & Observations

Time (IST) Temp. Windchill Dew Point Humidity Pressure Visibility Wind Dir Wind Speed Gust Speed Precip Events Conditions
12:10 AM 57.2 °F - 42.8 °F 59% 29.92 in 2.5 mi Calm Calm - N/A   Haze
12:40 AM 57.2 °F - 41.0 °F 55% 29.89 in 2.5 mi Variable 2.3 mph - N/A   Haze
1:10 AM 55.4 °F - 41.0 °F 58% 29.89 in 2.5 mi Variable 2.3 mph - N/A   Haze
1:40 AM 53.6 °F - 41.0 °F 62% 29.89 in 2.5 mi Calm Calm - N/A   Haze
2:10 AM 51.8 °F - 41.0 °F 67% 29.89 in 2.5 mi Calm Calm - N/A   Haze
2:30 AM 54 °F - 46 °F 65% 29.93 in 1 mi NNW 3.5 mph - -   Haze
2:40 AM 51.8 °F - 41.0 °F 67% 29.89 in 2.5 mi Calm Calm - N/A   Haze
3:10 AM 50.0 °F - 41.0 °F 71% 29.89 in 2.5 mi Calm Calm - N/A   Haze
3:40 AM 50.0 °F - 42.8 °F 76% 29.89 in 2.5 mi Calm Calm - N/A   Haze
4:10 AM 50.0 °F - 44.6 °F 82% 29.86 in 2.5 mi Calm Calm - N/A   Haze
4:40 AM 50.0 °F - 44.6 °F 82% 29.86 in 2.5 mi NNE 3.5 mph - N/A   Haze
5:10 AM 48.2 °F - 44.6 °F 87% 29.89 in 2.5 mi NNE 3.5 mph - N/A   Mist
5:40 AM 48.2 °F - 42.8 °F 82% 29.89 in 2.5 mi NE 4.6 mph - N/A   Mist
6:10 AM 46.4 °F 44.3 °F 41.0 °F 81% 29.89 in 2.2 mi NNE 4.6 mph - N/A   Mist
7:10 AM 46.4 °F 45.2 °F 42.8 °F 87% 29.92 in 1.6 mi NE 3.5 mph - N/A   Mist
7:40 AM 46.4 °F 44.3 °F 42.8 °F 87% 29.92 in 1.6 mi NNE 4.6 mph - N/A   Mist
8:10 AM 46.4 °F 44.3 °F 42.8 °F 87% 29.92 in 1.2 mi NNE 4.6 mph - N/A   Mist
8:30 AM 55 °F - 44 °F 56% 29.96 in 1 mi NE 2.3 mph - -   Haze
8:40 AM 51.8 °F - 42.8 °F 71% 29.95 in 1.1 mi ENE 5.8 mph - N/A   Mist
9:10 AM 57.2 °F - 41.0 °F 55% 29.95 in 1.2 mi ENE 5.8 mph - N/A   Haze
9:40 AM 60.8 °F - 41.0 °F 48% 29.95 in 1.6 mi ENE 8.1 mph - N/A   Haze
10:40 AM 69.8 °F - 42.8 °F 38% 29.95 in 2.2 mi SE 5.8 mph - N/A   Smoke
11:10 AM 71.6 °F - 44.6 °F 38% 29.95 in 2.5 mi ENE 5.8 mph - N/A   Smoke
11:30 AM 72 °F - 47 °F 30% 29.96 in 2 mi East 2.3 mph - -  
11:40 AM 75.2 °F - 42.8 °F 31% 29.92 in 2.5 mi East 4.6 mph - N/A   Smoke
1:10 PM 77.0 °F - 41.0 °F 28% 29.86 in 3.1 mi NNE 6.9 mph - N/A   Smoke
1:40 PM 77.0 °F - 41.0 °F 28% 29.86 in 3.1 mi East 8.1 mph - N/A   Smoke
2:10 PM 78.8 °F - 41.0 °F 26% 29.83 in 3.7 mi NE 8.1 mph - N/A   Unknown
2:30 PM 77 °F - 46 °F 23% 29.87 in 2 mi NE 3.5 mph - -  
2:40 PM 78.8 °F - 39.2 °F 24% 29.83 in 3.7 mi NNE 6.9 mph - N/A   Unknown
3:10 PM 78.8 °F - 39.2 °F 24% 29.83 in 3.7 mi NE 9.2 mph - N/A   Unknown
3:40 PM 78.8 °F - 39.2 °F 24% 29.83 in 3.7 mi NE 6.9 mph - N/A   Unknown
4:10 PM 78.8 °F - 39.2 °F 24% 29.83 in 3.7 mi ENE 8.1 mph - N/A   Unknown
4:40 PM 77.0 °F - 39.2 °F 26% 29.83 in 3.7 mi NE 9.2 mph - N/A   Unknown
5:10 PM 77.0 °F - 41.0 °F 28% 29.83 in 3.7 mi NE 8.1 mph - N/A   Unknown
5:30 PM 75 °F - 47 °F 26% 29.86 in 2 mi North 3.5 mph - -  
6:40 PM 68.0 °F - 41.0 °F 37% 29.86 in 2.5 mi NE 6.9 mph - N/A   Smoke
7:10 PM 66.2 °F - 42.8 °F 43% 29.86 in 2.5 mi Calm Calm - N/A   Smoke
7:40 PM 62.6 °F - 46.4 °F 55% 29.86 in 2.5 mi NNE 4.6 mph - N/A   Smoke
8:10 PM 62.6 °F - 44.6 °F 52% 29.89 in 2.5 mi NNE 4.6 mph - N/A   Smoke
8:30 PM 59 °F - 51 °F 67% 29.92 in 2 mi Calm Calm - -  
8:40 PM 62.6 °F - 42.8 °F 48% 29.89 in 2.5 mi NE 4.6 mph - N/A   Smoke
9:10 PM 60.8 °F - 44.6 °F 55% 29.89 in 2.5 mi NNE 4.6 mph - N/A   Smoke
9:40 PM 59.0 °F - 44.6 °F 59% 29.89 in 2.5 mi NNE 2.3 mph - N/A   Smoke
10:10 PM 59.0 °F - 46.4 °F 63% 29.92 in 2.5 mi North 4.6 mph - N/A   Smoke
10:40 PM 59.0 °F - 41.0 °F 51% 29.92 in 2.5 mi ENE 5.8 mph - N/A   Smoke
11:10 PM 57.2 °F - 41.0 °F 55% 29.89 in 2.5 mi NE 4.6 mph - N/A   Smoke
11:30 PM 59 °F - 44 °F 47% 29.93 in 2 mi NNE 2.3 mph - -  
11:40 PM 57.2 °F - 41.0 °F 55% 29.89 in 2.5 mi NNE 3.5 mph - N/A   Smoke